Regional Weather Roundup
Issued by NWS

Home | Current Version | Previous Version | Graphics & Text | Print | Product List | Glossary On
Versions: 1 2 3 4 5 6 7 8 9 10 11 12 13 14 15 16 17 18 19 20 21 22 23 24 25 26 27 28 29 30 31 32 33 34 35 36 37 38 39 40 41 42 43 44 45 46 47 48 49 50
422
ASUS43 KFSD 210610
RWRSD

WEATHER ROUNDUP FOR SOUTH DAKOTA
NATIONAL WEATHER SERVICE SIOUX FALLS SD
100 AM CDT MON AUG 21 2017

NOTE: "FAIR" INDICATES FEW OR NO CLOUDS BELOW 12,000 FEET WITH NO
SIGNIFICANT WEATHER AND/OR OBSTRUCTIONS TO VISIBILITY.


SDZ001>005-009-010-012>017-210700-
NORTHWEST AND NORTH CENTRAL SOUTH DAKOTA

CITY           SKY/WX    TMP DP  RH WIND       PRES   REMARKS
BUFFALO          N/A     63  51  65 SE15      29.93F
FAITH            N/A     60  54  80 SE18G25   30.01F
MOBRIDGE       CLOUDY    60  47  61 E10       29.98F
$$

SDZ012>016-024>037-041>051-057-063-072>074-210700-
SOUTHWEST AND SOUTH CENTRAL SOUTH DAKOTA

CITY           SKY/WX    TMP DP  RH WIND       PRES   REMARKS
RAPID CTY ARPT CLEAR     63  54  72 SE6       30.01S
PIERRE         CLEAR     60  53  77 E9        30.00S
CUSTER         CLOUDY    60  52  74 SE6       30.13F
ELLSWORTH AFB  CLEAR     65  55  70 SE5       30.00F
PHILIP         PTCLDY    63  49  60 NE9       30.01R
PINE RIDGE     PTCLDY    67  58  72 E10       30.02F
SPEARFISH      FAIR      72  54  53 E8G17     29.98S
WINNER         FAIR      67  63  87 E8        30.00F
$$

SDZ004>011-016>023-039-040-210700-
NORTHEAST SOUTH DAKOTA

CITY           SKY/WX    TMP DP  RH WIND       PRES   REMARKS
ABERDEEN       CLEAR     54  53  97 E8        30.02F
WATERTOWN      CLEAR     58  55  90 NE3       30.04F
SISSETON         N/A     57  56  96 CALM      30.04R
$$

SDZ017-020-022-023-036>040-048>070-210700-
SOUTHEAST SOUTH DAKOTA

CITY           SKY/WX    TMP DP  RH WIND       PRES   REMARKS
SIOUX FALLS    PTCLDY    66  63  90 NE5       29.98F
HURON          CLEAR     60  56  86 CALM      30.00F
CHAMBERLAIN    PTCLDY    64  59  86 CALM      30.00F
MITCHELL       MOCLDY    64  59  83 CALM      30.00F
YANKTON        CLEAR     69  65  86 NE6       29.96F
$$

ABBREVIATIONS USED IN REMARKS
   TC - TEMPERATURE IN CELSIUS
  WCI - WIND CHILL INDEX
   HX - HEAT INDEX
  VSB - VISIBILITY





USA.gov is the U.S. government's official web portal to all federal, state and local government web resources and services.